| time (UTC) | temp F | wind direction | speed MPH | gust MPH | rain 1hr in | rain 24hr in | rain mn in | humidity % | barometer mb |
| 20260503215003 | 92 | 219 | 5.0 | 10.0 | 0.00 | 0.00 | 0.00 | 14 | 1009.9 |
| 20260503214531 | 91 | 127 | 3.0 | 10.0 | 0.00 | 0.00 | 0.00 | 17 | 1010.1 |
| 20260503214006 | 91 | 72 | 2.0 | 10.0 | 0.00 | 0.00 | 0.00 | 20 | 1010.2 |
| 20260503213512 | 91 | 131 | 4.0 | 10.0 | 0.00 | 0.00 | 0.00 | 21 | 1010.4 |
| 20260503213028 | 90 | 120 | 1.0 | 8.0 | 0.00 | 0.00 | 0.00 | 22 | 1010.6 |
| 20260503212508 | 88 | 80 | 5.0 | 8.0 | 0.00 | 0.00 | 0.00 | 23 | 1010.8 |
| 20260503212005 | 89 | 91 | 2.0 | 8.0 | 0.00 | 0.00 | 0.00 | 22 | 1010.9 |
| 20260503211523 | 88 | 138 | 1.0 | 8.0 | 0.00 | 0.00 | 0.00 | 22 | 1010.9 |
| 20260503211007 | 88 | 127 | 0.0 | 4.0 | 0.00 | 0.00 | 0.00 | 23 | 1011.1 |
| 20260503210504 | 87 | 127 | 1.0 | 8.0 | 0.00 | 0.00 | 0.00 | 23 | 1011.3 |
| 20260503210039 | 87 | 107 | 3.0 | 8.0 | 0.00 | 0.00 | 0.00 | 23 | 1011.4 |
| 20260503205511 | 88 | 99 | 3.0 | 8.0 | 0.00 | 0.00 | 0.00 | 23 | 1011.4 |
| 20260503205004 | 88 | 122 | 2.0 | 8.0 | 0.00 | 0.00 | 0.00 | 22 | 1011.4 |
| 20260503204524 | 88 | 127 | 3.0 | 8.0 | 0.00 | 0.00 | 0.00 | 23 | 1011.4 |
| 20260503204008 | 88 | 103 | 2.0 | 8.0 | 0.00 | 0.00 | 0.00 | 24 | 1011.5 |
| 20260503203506 | 87 | 21 | 2.0 | 9.0 | 0.00 | 0.00 | 0.00 | 24 | 1011.5 |
| 20260503203028 | 86 | 18 | 4.0 | 9.0 | 0.00 | 0.00 | 0.00 | 24 | 1011.6 |
| 20260503202508 | 87 | 20 | 4.0 | 10.0 | 0.00 | 0.00 | 0.00 | 24 | 1011.8 |
| 20260503202004 | 86 | 11 | 4.0 | 10.0 | 0.00 | 0.00 | 0.00 | 24 | 1011.8 |
| 20260503201532 | 86 | 18 | 5.0 | 10.0 | 0.00 | 0.00 | 0.00 | 24 | 1011.7 |
| 20260503201007 | 87 | 18 | 2.0 | 9.0 | 0.00 | 0.00 | 0.00 | 24 | 1011.8 |
| 20260503200503 | 87 | 25 | 5.0 | 10.0 | 0.00 | 0.00 | 0.00 | 24 | 1011.9 |
| 20260503200004 | 86 | 14 | 5.0 | 10.0 | 0.00 | 0.00 | 0.00 | 25 | 1011.9 |
| 20260503195508 | 87 | 11 | 3.0 | 9.0 | 0.00 | 0.00 | 0.00 | 25 | 1012.0 |
| 20260503195005 | 87 | 18 | 5.0 | 9.0 | 0.00 | 0.00 | 0.00 | 24 | 1012.2 |
| 20260503194524 | 86 | 13 | 4.0 | 8.0 | 0.00 | 0.00 | 0.00 | 25 | 1012.2 |
| 20260503194006 | 86 | 15 | 3.0 | 10.0 | 0.00 | 0.00 | 0.00 | 26 | 1012.2 |
| 20260503193505 | 85 | 13 | 5.0 | 10.0 | 0.00 | 0.00 | 0.00 | 26 | 1012.3 |
| 20260503193022 | 85 | 360 | 4.0 | 10.0 | 0.00 | 0.00 | 0.00 | 26 | 1012.4 |
| 20260503192504 | 85 | 11 | 5.0 | 10.0 | 0.00 | 0.00 | 0.00 | 27 | 1012.5 |
| 20260503192003 | 85 | 11 | 5.0 | 11.0 | 0.00 | 0.00 | 0.00 | 27 | 1012.5 |
| 20260503191524 | 84 | 11 | 3.0 | 11.0 | 0.00 | 0.00 | 0.00 | 28 | 1012.5 |
| 20260503191009 | 85 | 360 | 4.0 | 11.0 | 0.00 | 0.00 | 0.00 | 28 | 1012.5 |
| 20260503190506 | 84 | 13 | 4.0 | 11.0 | 0.00 | 0.00 | 0.00 | 28 | 1012.5 |
| 20260503190030 | 84 | 8 | 3.0 | 11.0 | 0.00 | 0.00 | 0.00 | 29 | 1012.6 |
| 20260503185506 | 83 | 5 | 5.0 | 11.0 | 0.00 | 0.00 | 0.00 | 29 | 1012.7 |
| 20260503185004 | 83 | 23 | 5.0 | 11.0 | 0.00 | 0.00 | 0.00 | 30 | 1012.6 |
| 20260503184527 | 83 | 6 | 5.0 | 11.0 | 0.00 | 0.00 | 0.00 | 30 | 1012.8 |
| 20260503184005 | 83 | 8 | 4.0 | 11.0 | 0.00 | 0.00 | 0.00 | 29 | 1013.1 |
| 20260503183508 | 82 | 8 | 5.0 | 12.0 | 0.00 | 0.00 | 0.00 | 30 | 1013.2 |
| 20260503183025 | 82 | 4 | 7.0 | 15.0 | 0.00 | 0.00 | 0.00 | 30 | 1013.2 |
| 20260503182505 | 82 | 5 | 6.0 | 15.0 | 0.00 | 0.00 | 0.00 | 30 | 1013.4 |
| 20260503182005 | 82 | 6 | 6.0 | 13.0 | 0.00 | 0.00 | 0.00 | 30 | 1013.4 |
| 20260503181524 | 81 | 360 | 6.0 | 14.0 | 0.00 | 0.00 | 0.00 | 30 | 1013.5 |
| 20260503181006 | 82 | 360 | 7.0 | 14.0 | 0.00 | 0.00 | 0.00 | 30 | 1013.6 |
| 20260503180504 | 82 | 8 | 6.0 | 11.0 | 0.00 | 0.00 | 0.00 | 30 | 1013.8 |
| 20260503180024 | 82 | 360 | 3.0 | 14.0 | 0.00 | 0.00 | 0.00 | 30 | 1013.9 |
| 20260503175508 | 82 | 6 | 5.0 | 14.0 | 0.00 | 0.00 | 0.00 | 30 | 1013.8 |
| 20260503175003 | 82 | 10 | 5.0 | 11.0 | 0.00 | 0.00 | 0.00 | 30 | 1013.8 |
| 20260503174522 | 82 | 5 | 5.0 | 10.0 | 0.00 | 0.00 | 0.00 | 30 | 1013.9 |
| 20260503174004 | 82 | 6 | 3.0 | 10.0 | 0.00 | 0.00 | 0.00 | 30 | 1014.0 |
| 20260503173504 | 81 | 15 | 5.0 | 10.0 | 0.00 | 0.00 | 0.00 | 30 | 1014.1 |
| 20260503173029 | 82 | 16 | 3.0 | 10.0 | 0.00 | 0.00 | 0.00 | 30 | 1014.1 |
| 20260503172504 | 81 | 6 | 2.0 | 10.0 | 0.00 | 0.00 | 0.00 | 31 | 1014.2 |
| 20260503172008 | 81 | 5 | 5.0 | 10.0 | 0.00 | 0.00 | 0.00 | 31 | 1014.2 |
| 20260503171522 | 81 | 5 | 4.0 | 14.0 | 0.00 | 0.00 | 0.00 | 31 | 1014.3 |
| 20260503171008 | 81 | 8 | 5.0 | 14.0 | 0.00 | 0.00 | 0.00 | 31 | 1014.2 |
| 20260503170504 | 81 | 5 | 4.0 | 14.0 | 0.00 | 0.00 | 0.00 | 31 | 1014.2 |
| 20260503151006 | 76 | 8 | 1.0 | 5.0 | 0.00 | 0.00 | 0.00 | 37 | 1014.3 |
| 20260503150505 | 75 | 7 | 2.0 | 6.0 | 0.00 | 0.00 | 0.00 | 37 | 1014.4 |
| 20260503131007 | 71 | 5 | 5.0 | 9.0 | 0.00 | 0.00 | 0.00 | 40 | 1013.4 |
| 20260503130510 | 71 | 4 | 3.0 | 7.0 | 0.00 | 0.00 | 0.00 | 40 | 1013.4 |
| 20260503110504 | 74 | 4 | 3.0 | 8.0 | 0.00 | 0.00 | 0.00 | 36 | 1013.1 |
| 20260503090503 | 75 | 6 | 3.0 | 8.0 | 0.00 | 0.00 | 0.00 | 34 | 1013.3 |
| 20260503081542 | 76 | 6 | 3.0 | 6.0 | 0.00 | 0.00 | 0.00 | 32 | 1013.4 |
| 20260503081008 | 76 | 6 | 2.0 | 7.0 | 0.00 | 0.00 | 0.00 | 32 | 1013.4 |
| 20260503080502 | 76 | 6 | 2.0 | 7.0 | 0.00 | 0.00 | 0.00 | 32 | 1013.5 |
| 20260503072506 | 77 | 6 | 3.0 | 8.0 | 0.00 | 0.00 | 0.00 | 30 | 1013.4 |
| 20260503072003 | 77 | 5 | 4.0 | 8.0 | 0.00 | 0.00 | 0.00 | 30 | 1013.5 |
| 20260503071535 | 77 | 5 | 3.0 | 8.0 | 0.00 | 0.00 | 0.00 | 30 | 1013.5 |
| 20260503071009 | 77 | 6 | 3.0 | 7.0 | 0.00 | 0.00 | 0.00 | 30 | 1013.7 |
| 20260503070504 | 78 | 6 | 1.0 | 7.0 | 0.00 | 0.00 | 0.00 | 30 | 1013.7 |
| 20260503055003 | 80 | 6 | 4.0 | 13.0 | 0.00 | 0.00 | 0.00 | 28 | 1012.6 |
| 20260503054533 | 80 | 8 | 5.0 | 12.0 | 0.00 | 0.00 | 0.00 | 27 | 1012.4 |
| 20260503054008 | 80 | 6 | 7.0 | 13.0 | 0.00 | 0.00 | 0.00 | 27 | 1012.5 |
| 20260503053503 | 80 | 6 | 5.0 | 13.0 | 0.00 | 0.00 | 0.00 | 27 | 1012.5 |
| 20260503053027 | 80 | 6 | 6.0 | 14.0 | 0.00 | 0.00 | 0.00 | 27 | 1012.6 |
| 20260503052509 | 80 | 6 | 6.0 | 14.0 | 0.00 | 0.00 | 0.00 | 27 | 1012.6 |
| 20260503052004 | 80 | 6 | 7.0 | 14.0 | 0.00 | 0.00 | 0.00 | 27 | 1012.7 |
| 20260503051525 | 80 | 6 | 7.0 | 17.0 | 0.00 | 0.00 | 0.00 | 27 | 1012.7 |
| 20260503051005 | 80 | 6 | 8.0 | 17.0 | 0.00 | 0.00 | 0.00 | 27 | 1012.7 |
| 20260503050504 | 80 | 7 | 7.0 | 14.0 | 0.00 | 0.00 | 0.00 | 27 | 1012.5 |
| 20260503050026 | 80 | 6 | 5.0 | 14.0 | 0.00 | 0.00 | 0.00 | 27 | 1012.5 |
| 20260503045506 | 80 | 7 | 7.0 | 14.0 | 0.00 | 0.00 | 0.00 | 27 | 1012.4 |
| 20260503045007 | 80 | 7 | 6.0 | 13.0 | 0.00 | 0.00 | 0.00 | 26 | 1012.4 |
| 20260503044536 | 80 | 6 | 6.0 | 15.0 | 0.00 | 0.00 | 0.00 | 26 | 1012.4 |
| 20260503044006 | 81 | 6 | 7.0 | 15.0 | 0.00 | 0.00 | 0.00 | 26 | 1012.4 |
| 20260503043504 | 81 | 6 | 5.0 | 13.0 | 0.00 | 0.00 | 0.00 | 26 | 1012.4 |
| 20260503043024 | 81 | 6 | 6.0 | 14.0 | 0.00 | 0.00 | 0.00 | 26 | 1012.3 |
| 20260503042508 | 81 | 6 | 6.0 | 14.0 | 0.00 | 0.00 | 0.00 | 26 | 1012.2 |
| 20260503042004 | 81 | 6 | 8.0 | 16.0 | 0.00 | 0.00 | 0.00 | 26 | 1012.0 |
| 20260503041524 | 81 | 6 | 6.0 | 16.0 | 0.00 | 0.00 | 0.00 | 26 | 1011.8 |
| 20260503041004 | 81 | 6 | 6.0 | 17.0 | 0.00 | 0.00 | 0.00 | 26 | 1011.8 |
| 20260503040509 | 81 | 6 | 6.0 | 17.0 | 0.00 | 0.00 | 0.00 | 25 | 1011.8 |
| 20260503040026 | 81 | 5 | 5.0 | 17.0 | 0.00 | 0.00 | 0.00 | 25 | 1011.6 |
| 20260503035506 | 81 | 6 | 6.0 | 12.0 | 0.00 | 0.00 | 0.00 | 25 | 1011.6 |
| 20260503035009 | 81 | 6 | 3.0 | 10.0 | 0.00 | 0.00 | 0.00 | 25 | 1011.4 |
| 20260503034524 | 81 | 6 | 5.0 | 11.0 | 0.00 | 0.00 | 0.00 | 25 | 1011.4 |
| 20260503034007 | 81 | 6 | 5.0 | 11.0 | 0.00 | 0.00 | 0.00 | 25 | 1011.5 |
| 20260503033503 | 81 | 6 | 4.0 | 9.0 | 0.00 | 0.00 | 0.00 | 24 | 1011.5 |
| 20260503033025 | 82 | 6 | 4.0 | 10.0 | 0.00 | 0.00 | 0.00 | 24 | 1011.5 |
| 20260503032506 | 82 | 6 | 6.0 | 10.0 | 0.00 | 0.00 | 0.00 | 24 | 1011.5 |
| 20260503032010 | 82 | 5 | 3.0 | 10.0 | 0.00 | 0.00 | 0.00 | 24 | 1011.5 |
| 20260503031521 | 82 | 5 | 5.0 | 9.0 | 0.00 | 0.00 | 0.00 | 24 | 1011.4 |
| 20260503031006 | 82 | 6 | 4.0 | 10.0 | 0.00 | 0.00 | 0.00 | 24 | 1011.4 |
| 20260503030515 | 82 | 6 | 4.0 | 13.0 | 0.00 | 0.00 | 0.00 | 24 | 1011.4 |
| 20260503030027 | 82 | 56 | 4.0 | 13.0 | 0.00 | 0.00 | 0.00 | 23 | 1011.4 |
| 20260503025506 | 83 | 5 | 5.0 | 12.0 | 0.00 | 0.00 | 0.00 | 23 | 1011.3 |
| 20260503025009 | 83 | 5 | 6.0 | 12.0 | 0.00 | 0.00 | 0.00 | 23 | 1011.2 |
| 20260503024522 | 83 | 6 | 6.0 | 13.0 | 0.00 | 0.00 | 0.00 | 23 | 1011.1 |
| 20260503024006 | 83 | 5 | 6.0 | 13.0 | 0.00 | 0.00 | 0.00 | 23 | 1011.1 |
| 20260503023510 | 83 | 6 | 5.0 | 13.0 | 0.00 | 0.00 | 0.00 | 22 | 1011.1 |
| 20260503023026 | 83 | 5 | 3.0 | 10.0 | 0.00 | 0.00 | 0.00 | 22 | 1011.0 |
| 20260503022504 | 84 | 6 | 5.0 | 9.0 | 0.00 | 0.00 | 0.00 | 21 | 1011.0 |
| 20260503022015 | 84 | 7 | 3.0 | 10.0 | 0.00 | 0.00 | 0.00 | 21 | 1011.0 |
| 20260503021521 | 84 | 6 | 5.0 | 10.0 | 0.00 | 0.00 | 0.00 | 21 | 1011.0 |
| 20260503021005 | 84 | 7 | 3.0 | 7.0 | 0.00 | 0.00 | 0.00 | 20 | 1010.9 |
| 20260503020509 | 85 | 6 | 3.0 | 8.0 | 0.00 | 0.00 | 0.00 | 20 | 1010.9 |
| 20260503020023 | 85 | 7 | 4.0 | 8.0 | 0.00 | 0.00 | 0.00 | 20 | 1011.0 |
| 20260503015507 | 85 | 9 | 4.0 | 7.0 | 0.00 | 0.00 | 0.00 | 19 | 1011.0 |
| 20260503015008 | 85 | 10 | 1.0 | 7.0 | 0.00 | 0.00 | 0.00 | 19 | 1011.0 |
| 20260503014524 | 85 | 8 | 2.0 | 7.0 | 0.00 | 0.00 | 0.00 | 19 | 1011.0 |
| 20260503014006 | 85 | 9 | 3.0 | 7.0 | 0.00 | 0.00 | 0.00 | 19 | 1011.0 |
| 20260503013513 | 85 | 8 | 3.0 | 8.0 | 0.00 | 0.00 | 0.00 | 19 | 1011.0 |
| 20260503013006 | 85 | 8 | 4.0 | 8.0 | 0.00 | 0.00 | 0.00 | 19 | 1011.0 |
| 20260503012502 | 86 | 8 | 1.0 | 4.0 | 0.00 | 0.00 | 0.00 | 19 | 1011.0 |
| 20260503012003 | 86 | 6 | 0.0 | 4.0 | 0.00 | 0.00 | 0.00 | 18 | 1011.0 |
| 20260503011508 | 86 | 7 | 0.0 | 4.0 | 0.00 | 0.00 | 0.00 | 18 | 1011.1 |
| 20260503011001 | 86 | 8 | 1.0 | 4.0 | 0.00 | 0.00 | 0.00 | 18 | 1011.2 |
| 20260503010502 | 86 | 8 | 1.0 | 4.0 | 0.00 | 0.00 | 0.00 | 18 | 1011.2 |
| 20260503010008 | 86 | 7 | 0.0 | 5.0 | 0.00 | 0.00 | 0.00 | 18 | 1011.2 |
| 20260503005501 | 86 | 8 | 2.0 | 6.0 | 0.00 | 0.00 | 0.00 | 18 | 1011.2 |
| 20260503005005 | 86 | 8 | 2.0 | 6.0 | 0.00 | 0.00 | 0.00 | 18 | 1011.2 |
| 20260503004509 | 87 | 8 | 3.0 | 8.0 | 0.00 | 0.00 | 0.00 | 18 | 1011.2 |
| 20260503004004 | 87 | 3 | 3.0 | 8.0 | 0.00 | 0.00 | 0.00 | 18 | 1011.1 |
| 20260503003504 | 87 | 11 | 3.0 | 7.0 | 0.00 | 0.00 | 0.00 | 18 | 1011.1 |
| 20260503003006 | 87 | 18 | 3.0 | 8.0 | 0.00 | 0.00 | 0.00 | 18 | 1011.2 |
| 20260503002502 | 87 | 16 | 3.0 | 8.0 | 0.00 | 0.00 | 0.00 | 17 | 1011.2 |
| 20260503002002 | 87 | 8 | 4.0 | 8.0 | 0.00 | 0.00 | 0.00 | 18 | 1011.2 |
| 20260503001511 | 87 | 56 | 0.0 | 6.0 | 0.00 | 0.00 | 0.00 | 17 | 1011.2 |
| 20260503001001 | 88 | 174 | 0.0 | 6.0 | 0.00 | 0.00 | 0.00 | 17 | 1011.3 |
| 20260503000501 | 88 | 72 | 3.0 | 6.0 | 0.00 | 0.00 | 0.00 | 17 | 1011.3 |
| 20260503000010 | 88 | 94 | 0.0 | 6.0 | 0.00 | 0.00 | 0.00 | 17 | 1011.2 |
| 20260502235501 | 89 | 98 | 2.0 | 5.0 | 0.00 | 0.00 | 0.00 | 17 | 1011.2 |
| 20260502235002 | 89 | 109 | 2.0 | 5.0 | 0.00 | 0.00 | 0.00 | 17 | 1011.3 |
| 20260502234508 | 89 | 119 | 1.0 | 5.0 | 0.00 | 0.00 | 0.00 | 17 | 1011.3 |
| 20260502234009 | 89 | 104 | 3.0 | 7.0 | 0.00 | 0.00 | 0.00 | 17 | 1011.3 |
| 20260502233506 | 88 | 118 | 1.0 | 7.0 | 0.00 | 0.00 | 0.00 | 16 | 1011.3 |
| 20260502233011 | 89 | 98 | 3.0 | 7.0 | 0.00 | 0.00 | 0.00 | 16 | 1011.4 |
| 20260502232503 | 90 | 179 | 2.0 | 7.0 | 0.00 | 0.00 | 0.00 | 15 | 1011.5 |
| 20260502232003 | 90 | 103 | 2.0 | 8.0 | 0.00 | 0.00 | 0.00 | 16 | 1011.5 |
| 20260502231518 | 89 | 160 | 2.0 | 8.0 | 0.00 | 0.00 | 0.00 | 16 | 1011.4 |
| 20260502231003 | 88 | 163 | 2.0 | 6.0 | 0.00 | 0.00 | 0.00 | 16 | 1011.6 |
| 20260502230503 | 88 | 286 | 0.0 | 7.0 | 0.00 | 0.00 | 0.00 | 15 | 1011.8 |
| 20260502230008 | 89 | 290 | 2.0 | 8.0 | 0.00 | 0.00 | 0.00 | 15 | 1011.7 |
| 20260502225504 | 89 | 173 | 2.0 | 8.0 | 0.00 | 0.00 | 0.00 | 14 | 1011.7 |
| 20260502225004 | 90 | 205 | 3.0 | 8.0 | 0.00 | 0.00 | 0.00 | 14 | 1011.8 |
| 20260502224511 | 90 | 212 | 2.0 | 5.0 | 0.00 | 0.00 | 0.00 | 13 | 1011.8 |
| 20260502224004 | 91 | 224 | 0.0 | 10.0 | 0.00 | 0.00 | 0.00 | 13 | 1011.8 |
| 20260502223506 | 90 | 236 | 4.0 | 10.0 | 0.00 | 0.00 | 0.00 | 13 | 1011.9 |
| 20260502223012 | 90 | 193 | 5.0 | 10.0 | 0.00 | 0.00 | 0.00 | 14 | 1011.9 |
| 20260502222504 | 90 | 184 | 3.0 | 7.0 | 0.00 | 0.00 | 0.00 | 14 | 1011.9 |
| 20260502222003 | 90 | 218 | 1.0 | 5.0 | 0.00 | 0.00 | 0.00 | 12 | 1011.9 |
| 20260502221513 | 90 | 220 | 0.0 | 10.0 | 0.00 | 0.00 | 0.00 | 13 | 1011.9 |
| 20260502221003 | 88 | 207 | 3.0 | 10.0 | 0.00 | 0.00 | 0.00 | 13 | 1012.0 |
| 20260502220503 | 90 | 156 | 2.0 | 7.0 | 0.00 | 0.00 | 0.00 | 12 | 1012.1 |
| 20260502220013 | 90 | 30 | 3.0 | 9.0 | 0.00 | 0.00 | 0.00 | 12 | 1012.2 |
| 20260502215504 | 89 | 84 | 3.0 | 9.0 | 0.00 | 0.00 | 0.00 | 13 | 1012.2 |